Location: Barcelona
(41.3830°N, 2.1830°E)
Time: 01:40:39
(UTC+02:00)

ISS - Pass Details

Date: 27 July 2019
Orbit: 410 x 420 km, 51.6° (Epoch: 19 August)

Event Time Altitude Azimuth Distance (km) Brightness Sun altitude
Rises 21:49:27 0° 295° (WNW) 2,372 2.5 -6.6°
Reaches altitude 10° 21:52:17 10° 321° (NW) 1,506 0.5 -7.1°
Maximum altitude 21:54:15 15° 357° (N) 1,260 -0.8 -7.4°
Drops below altitude 10° 21:56:13 10° 33° (NNE) 1,503 -0.9 -7.7°
Enters shadow 22:00:26 -4° 65° (ENE) 2,864 0.2 -8.3°
